• In Hungary
  • List of Countries
  • For 7 days
  • Water Temperature
  • Satellite Maps
  • Weather Map
  • News
  • Weather Widgets
  • user-avatar
    Login

    Hourly Weather Tongeren

    Today, 19 February, Monday

    Time Temperature Precipitation Wind Pressure Humidity
    00:00 -2°C° 0 mm 2 mps 758 mmHg 83%
    01:00 -2°C° 0 mm 2 mps 758 mmHg 82%
    02:00 -2°C° 0 mm 2 mps 757 mmHg 81%
    03:00 -2°C° 0 mm 2 mps 757 mmHg 80%
    04:00 -2°C° 0 mm 2 mps 757 mmHg 78%
    05:00 -2°C° 0 mm 2 mps 757 mmHg 76%
    06:00 -2°C° 0 mm 2 mps 757 mmHg 74%
    07:00 -1°C° 0 mm 2 mps 756 mmHg 70%
    08:00 +1°C° 0 mm 2 mps 756 mmHg 67%
    09:00 +2°C° 0 mm 2 mps 756 mmHg 63%
    10:00 +3°C° 0 mm 2 mps 756 mmHg 59%
    11:00 +4°C° 0 mm 2 mps 755 mmHg 56%
    12:00 +5°C° 0 mm 2 mps 755 mmHg 52%
    13:00 +6°C° 0 mm 1 mps 755 mmHg 53%
    14:00 +7°C° 0 mm 1 mps 754 mmHg 53%
    15:00 +7°C° 0 mm 1 mps 754 mmHg 54%
    16:00 +6°C° 0 mm 1 mps 754 mmHg 58%
    17:00 +5°C° 0 mm 1 mps 754 mmHg 62%
    18:00 +4°C° 0 mm 1 mps 754 mmHg 66%
    19:00 +4°C° 0 mm 1 mps 754 mmHg 68%
    20:00 +4°C° 0 mm 1 mps 753 mmHg 69%
    21:00 +3°C° 0 mm 1 mps 753 mmHg 71%
    22:00 +3°C° 0 mm 1 mps 753 mmHg 72%
    23:00 +3°C° 0 mm 1 mps 753 mmHg 74%

    Tomorrow, 20 February, Tuesday

    Time Temperature Precipitation Wind Pressure Humidity
    00:00 +2°C° 0 mm 1 mps 753 mmHg 75%
    01:00 +2°C° 0 mm 1 mps 753 mmHg 76%
    02:00 +1°C° 0 mm 1 mps 753 mmHg 78%
    03:00 +1°C° 0 mm 1 mps 753 mmHg 79%
    04:00 +1°C° 0 mm 1 mps 753 mmHg 80%
    05:00 0°C° 0 mm 1 mps 753 mmHg 80%
    06:00 0°C° 0 mm 1 mps 754 mmHg 80%
    07:00 +1°C° 0 mm 1 mps 754 mmHg 75%
    08:00 +2°C° 0 mm 1 mps 754 mmHg 70%
    09:00 +4°C° 0 mm 1 mps 754 mmHg 65%
    10:00 +4°C° 0 mm 2 mps 754 mmHg 60%
    11:00 +5°C° 0 mm 2 mps 754 mmHg 56%
    12:00 +6°C° 0 mm 2 mps 754 mmHg 52%
    13:00 +6°C° 0 mm 2 mps 754 mmHg 52%
    14:00 +5°C° 0 mm 3 mps 754 mmHg 53%
    15:00 +5°C° 0 mm 3 mps 754 mmHg 53%
    16:00 +3°C° 0 mm 3 mps 755 mmHg 59%
    17:00 +2°C° 0 mm 3 mps 755 mmHg 64%
    18:00 0°C° 0 mm 3 mps 755 mmHg 70%
    19:00 0°C° 0 mm 3 mps 756 mmHg 71%
    20:00 0°C° 0 mm 3 mps 757 mmHg 73%
    21:00 -1°C° 0 mm 3 mps 757 mmHg 74%
    22:00 -1°C° 0 mm 3 mps 758 mmHg 76%
    23:00 -2°C° 0 mm 3 mps 758 mmHg 78%

    Day after tomorrow, 21 February, Wednesday

    Time Temperature Precipitation Wind Pressure Humidity
    00:00 -2°C° 0 mm 3 mps 758 mmHg 80%
    01:00 -2°C° 0 mm 2 mps 758 mmHg 81%
    02:00 -2°C° 0 mm 2 mps 758 mmHg 82%
    03:00 -3°C° 0 mm 2 mps 759 mmHg 83%
    04:00 -3°C° 0 mm 2 mps 759 mmHg 83%
    05:00 -3°C° 0 mm 2 mps 759 mmHg 84%
    06:00 -3°C° 0 mm 2 mps 759 mmHg 84%
    07:00 -2°C° 0 mm 3 mps 759 mmHg 79%
    08:00 -1°C° 0 mm 3 mps 759 mmHg 73%
    09:00 0°C° 0 mm 3 mps 760 mmHg 67%
    10:00 +1°C° 0 mm 3 mps 759 mmHg 61%
    11:00 +3°C° 0 mm 3 mps 759 mmHg 56%
    12:00 +4°C° 0 mm 4 mps 759 mmHg 50%
    13:00 +4°C° 0 mm 4 mps 759 mmHg 50%
    14:00 +4°C° 0 mm 4 mps 758 mmHg 50%
    15:00 +4°C° 0 mm 4 mps 758 mmHg 51%
    16:00 +1°C° 0 mm 4 mps 758 mmHg 56%
    17:00 +1°C° 0 mm 3 mps 758 mmHg 62%
    18:00 -1°C° 0 mm 3 mps 758 mmHg 68%
    19:00 -1°C° 0 mm 3 mps 758 mmHg 70%
    20:00 -2°C° 0 mm 3 mps 758 mmHg 71%
    21:00 -2°C° 0 mm 3 mps 758 mmHg 72%
    22:00 -2°C° 0 mm 3 mps 758 mmHg 73%
    23:00 -2°C° 0 mm 3 mps 758 mmHg 74%

    22 February, Thursday

    Time Temperature Precipitation Wind Pressure Humidity
    00:00 -4°C° 0 mm 3 mps 758 mmHg 75%
    01:00 -4°C° 0 mm 3 mps 757 mmHg 75%
    02:00 -4°C° 0 mm 3 mps 757 mmHg 76%
    03:00 -4°C° 0 mm 3 mps 757 mmHg 76%
    04:00 -4°C° 0 mm 3 mps 757 mmHg 76%
    05:00 -4°C° 0 mm 4 mps 757 mmHg 76%
    06:00 -4°C° 0 mm 4 mps 757 mmHg 77%
    07:00 -3°C° 0 mm 4 mps 757 mmHg 71%
    08:00 -2°C° 0 mm 5 mps 757 mmHg 66%
    09:00 -2°C° 0 mm 6 mps 757 mmHg 61%
    10:00 -1°C° 0 mm 6 mps 757 mmHg 54%
    11:00 +1°C° 0 mm 6 mps 757 mmHg 48%
    12:00 +2°C° 0 mm 7 mps 757 mmHg 42%
    13:00 +2°C° 0 mm 7 mps 756 mmHg 42%
    14:00 +2°C° 0 mm 7 mps 756 mmHg 42%
    15:00 +2°C° 0 mm 7 mps 756 mmHg 42%
    16:00 +1°C° 0 mm 6 mps 756 mmHg 47%
    17:00 -2°C° 0 mm 6 mps 756 mmHg 52%
    18:00 -2°C° 0 mm 5 mps 756 mmHg 58%
    19:00 -2°C° 0 mm 5 mps 757 mmHg 60%
    20:00 -2°C° 0 mm 5 mps 757 mmHg 62%
    21:00 -4°C° 0 mm 5 mps 757 mmHg 65%
    22:00 -4°C° 0 mm 5 mps 757 mmHg 67%
    23:00 -4°C° 0 mm 5 mps 757 mmHg 69%

    23 February, Friday

    Time Temperature Precipitation Wind Pressure Humidity
    00:00 -5°C° 0 mm 5 mps 757 mmHg 71%
    01:00 -5°C° 0 mm 5 mps 757 mmHg 71%
    02:00 -5°C° 0 mm 5 mps 756 mmHg 72%
    03:00 -5°C° 0 mm 5 mps 756 mmHg 72%
    04:00 -5°C° 0 mm 5 mps 756 mmHg 71%
    05:00 -5°C° 0 mm 5 mps 756 mmHg 70%
    06:00 -5°C° 0 mm 5 mps 756 mmHg 69%
    07:00 -5°C° 0 mm 6 mps 757 mmHg 62%
    08:00 -4°C° 0 mm 6 mps 757 mmHg 55%
    09:00 -3°C° 0 mm 6 mps 757 mmHg 48%
    10:00 -2°C° 0 mm 6 mps 757 mmHg 44%
    11:00 -1°C° 0 mm 7 mps 757 mmHg 40%
    12:00 0°C° 0 mm 7 mps 757 mmHg 36%
    13:00 0°C° 0 mm 7 mps 757 mmHg 36%
    14:00 0°C° 0 mm 7 mps 757 mmHg 36%
    15:00 0°C° 0 mm 7 mps 756 mmHg 36%
    16:00 -1°C° 0 mm 6 mps 757 mmHg 40%
    17:00 -2°C° 0 mm 6 mps 757 mmHg 44%
    18:00 -2°C° 0 mm 5 mps 757 mmHg 48%
    19:00 -4°C° 0 mm 5 mps 758 mmHg 50%
    20:00 -4°C° 0 mm 5 mps 758 mmHg 52%
    21:00 -4°C° 0 mm 5 mps 759 mmHg 54%
    22:00 -5°C° 0 mm 5 mps 759 mmHg 52%
    23:00 -5°C° 0 mm 5 mps 759 mmHg 51%

    24 February, Saturday

    Time Temperature Precipitation Wind Pressure Humidity
    00:00 -5°C° 0 mm 5 mps 759 mmHg 50%
    01:00 -5°C° 0 mm 5 mps 759 mmHg 48%
    02:00 -6°C° 0 mm 5 mps 760 mmHg 46%
    03:00 -6°C° 0 mm 5 mps 760 mmHg 44%
    04:00 -6°C° 0 mm 5 mps 760 mmHg 41%
    05:00 -6°C° 0 mm 5 mps 760 mmHg 39%
    06:00 -6°C° 0 mm 5 mps 760 mmHg 37%
    07:00 -5°C° 0 mm 6 mps 761 mmHg 35%
    08:00 -4°C° 0 mm 6 mps 761 mmHg 32%
    09:00 -3°C° 0 mm 7 mps 762 mmHg 29%
    10:00 -2°C° 0 mm 7 mps 761 mmHg 29%
    11:00 -1°C° 0 mm 7 mps 761 mmHg 28%
    12:00 0°C° 0 mm 7 mps 761 mmHg 28%
    13:00 0°C° 0 mm 7 mps 761 mmHg 29%
    14:00 0°C° 0 mm 7 mps 761 mmHg 30%
    15:00 0°C° 0 mm 7 mps 761 mmHg 32%
    16:00 -1°C° 0 mm 6 mps 761 mmHg 35%
    17:00 -2°C° 0 mm 6 mps 761 mmHg 39%
    18:00 -4°C° 0 mm 5 mps 762 mmHg 42%
    19:00 -4°C° 0 mm 5 mps 762 mmHg 44%
    20:00 -4°C° 0 mm 5 mps 762 mmHg 47%
    21:00 -5°C° 0 mm 5 mps 763 mmHg 49%
    22:00 -5°C° 0 mm 5 mps 763 mmHg 52%
    23:00 -5°C° 0 mm 5 mps 763 mmHg 54%
    Show more